Weather History for Crossville, TN

Change the Weather History Date:

Tuesday, February 26, 2013

  Actual Average Record
Temperature  
Mean Temperature 44 °F 42 °F  
Max Temperature 50 °F 52 °F 76 °F (1977)
Min Temperature 37 °F 33 °F 5 °F (1967)
Degree Days  
Heating Degree Days 22    
Month to date heating degree days  
Since 1 July heating degree days  
Cooling Degree Days 0    
Month to date cooling degree days  
Year to date cooling degree days  
Moisture  
Dew Point 39 °F    
Average Humidity 82    
Maximum Humidity 93    
Minimum Humidity 67    
Precipitation  
Precipitation 0.21 in 0.15 in 0.96 in (1972)
Month to date precipitation 4.14  
Year to date precipitation 8.90  
Sea Level Pressure  
Sea Level Pressure 29.55 in    
Wind  
Wind Speed 13 mph (SSW)    
Max Wind Speed 24 mph    
Max Gust Speed 44 mph    
Visibility 9 miles    
Events Rain    
T = Trace of Precipitation, MM = Missing Value Source: NWS Daily Summary

Daily Weather History Graph

Daily Weather History Graph

Search for Another Location

Airport:

Trip Planner

Search our weather history database for the weather conditions in past years. The results will help you decide how hot, cold, wet, or windy it might be!

Date:

Astronomy

Feb. 26, 2013 Rise Set
Actual Time 6:14 AM CST 5:32 PM CST
Civil Twilight 5:48 AM CST 5:58 PM CST
Nautical Twilight 5:18 AM CST 6:28 PM CST
Astronomical Twilight 4:48 AM CST 6:58 PM CST
Moon 6:44 PM CST (2/26) 6:19 AM CST (2/26)
Length of Visible Light 12h 10m
Length of Day
11h 18m
Full, 99% of the Moon is Illuminated
Feb 26
Full
Mar 4
Last Quarter
Mar 11
New
Mar 19
First Quarter
Mar 27
Full

Hourly Weather History & Observations

Time (CST) Temp. Windchill Dew Point Humidity Pressure Visibility Wind Dir Wind Speed Gust Speed Precip Events Conditions
12:53 AM 50.0 °F - 44.1 °F 80% 29.65 in 10.0 mi SSE 15.0 mph 27.6 mph N/A   Overcast
1:17 AM 48.2 °F - 44.6 °F 87% 29.63 in 8.0 mi SE 20.7 mph 39.1 mph 0.01 in Rain Light Rain
1:53 AM 48.0 °F - 44.1 °F 86% 29.52 in 10.0 mi SE 24.2 mph 43.7 mph 0.02 in Rain Light Rain
2:53 AM 48.9 °F - 45.0 °F 86% 29.55 in 5.0 mi SE 21.9 mph 36.8 mph 0.10 in Rain Light Rain
3:53 AM - - - N/A% 29.54 in - North - - 0.01 in   Unknown
4:53 AM - - - N/A% 29.54 in - North - - N/A   Unknown
5:53 AM - - - N/A% 29.49 in - North - - N/A   Unknown
6:53 AM - - - N/A% 29.47 in - North - - N/A   Unknown
7:53 AM 48.0 °F - 45.0 °F 89% 29.47 in 6.0 mi SE 11.5 mph 19.6 mph N/A Rain Light Rain
8:36 AM 48.2 °F - 44.6 °F 87% 29.49 in 10.0 mi SSE 8.1 mph - 0.00 in   Overcast
8:53 AM 48.0 °F - 45.0 °F 89% 29.48 in 10.0 mi South 6.9 mph - 0.00 in   Overcast
9:13 AM 46.4 °F 40.7 °F 44.6 °F 93% 29.49 in 10.0 mi South 12.7 mph 19.6 mph N/A   Overcast
9:53 AM 46.9 °F - 45.0 °F 93% 29.47 in 10.0 mi SSE 12.7 mph 19.6 mph N/A   Overcast
10:53 AM 48.0 °F - 45.0 °F 89% 29.46 in 7.0 mi South 16.1 mph 26.5 mph N/A   Overcast
11:53 AM 46.0 °F 41.0 °F 44.1 °F 93% 29.47 in 3.0 mi South 10.4 mph 23.0 mph 0.01 in Rain Light Rain
12:53 PM 45.0 °F 39.7 °F 42.1 °F 90% 29.46 in 5.0 mi SSW 10.4 mph 20.7 mph 0.01 in   Overcast
1:34 PM 46.4 °F 40.4 °F 42.8 °F 87% 29.48 in 5.0 mi SSW 13.8 mph 23.0 mph N/A   Overcast
1:53 PM 45.0 °F 40.1 °F 42.1 °F 90% 29.47 in 2.5 mi SSW 9.2 mph 23.0 mph 0.02 in Rain Light Rain
2:19 PM 44.6 °F 38.8 °F 41.0 °F 87% 29.49 in 9.0 mi WSW 11.5 mph 16.1 mph 0.03 in   Overcast
2:36 PM 44.6 °F 40.2 °F 39.2 °F 81% 29.51 in 10.0 mi SW 8.1 mph 26.5 mph 0.03 in   Overcast
2:53 PM 44.1 °F 38.6 °F 37.9 °F 79% 29.52 in 10.0 mi WSW 10.4 mph 24.2 mph 0.03 in   Overcast
3:53 PM 43.0 °F 36.4 °F 35.1 °F 74% 29.54 in 10.0 mi WSW 12.7 mph 18.4 mph N/A   Overcast
4:53 PM 42.1 °F 35.2 °F 34.0 °F 73% 29.56 in 10.0 mi SW 12.7 mph 19.6 mph N/A   Overcast
5:53 PM 42.1 °F 36.6 °F 32.0 °F 67% 29.60 in 10.0 mi SW 9.2 mph 19.6 mph N/A   Overcast
6:15 PM 41.0 °F 35.8 °F 32.0 °F 70% 29.61 in 10.0 mi SW 8.1 mph 18.4 mph N/A   Overcast
6:53 PM 41.0 °F 35.2 °F 32.0 °F 70% 29.63 in 10.0 mi SW 9.2 mph 20.7 mph N/A   Overcast
7:04 PM 39.2 °F 33.0 °F 32.0 °F 75% 29.63 in 10.0 mi SSW 9.2 mph 18.4 mph N/A   Overcast
7:53 PM 39.9 °F 35.8 °F 33.1 °F 77% 29.65 in 10.0 mi Variable 5.8 mph - N/A   Overcast
8:53 PM 39.0 °F 32.8 °F 32.0 °F 76% 29.66 in 10.0 mi WSW 9.2 mph 19.6 mph N/A   Overcast
9:50 PM 37.4 °F 30.8 °F 32.0 °F 81% 29.68 in 10.0 mi WSW 9.2 mph 25.3 mph 0.01 in   Overcast
9:53 PM 37.9 °F 30.9 °F 30.9 °F 76% 29.68 in 10.0 mi WSW 10.4 mph 25.3 mph 0.01 in   Overcast
10:53 PM 37.9 °F 31.5 °F 30.0 °F 73% 29.68 in 10.0 mi WSW 9.2 mph 20.7 mph N/A   Overcast
11:53 PM 37.0 °F 31.6 °F 30.9 °F 79% 29.70 in 10.0 mi Variable 6.9 mph - N/A   Overcast